Time,TemperatureF,DewpointF,PressureIn,WindDirection,WindDirectionDegrees,WindSpeedMPH,WindSpeedGustMPH,Humidity,HourlyPrecipIn,Conditions,Clouds,dailyrainin,SoftwareType,DateUTC
2013-03-01 00:00:00,31.1,28.5,29.85,NNW,338,0.0,0.0,90,0.00,,---,0.00,VWS V14.01,2013-03-01 05:00:00,
2013-03-01 00:05:00,31.1,28.5,29.85,North,0,0.0,5.4,90,0.00,,---,0.00,VWS V14.01,2013-03-01 05:05:00,
2013-03-01 00:06:00,31.1,28.5,29.85,ENE,68,0.0,5.4,90,0.00,,---,0.00,VWS V14.01,2013-03-01 05:06:00,
2013-03-01 00:11:00,31.1,28.5,29.85,NW,315,0.0,0.0,90,0.00,,---,0.00,VWS V14.01,2013-03-01 05:11:00,
2013-03-01 00:16:00,31.1,28.2,29.85,NNE,22,0.0,6.3,89,0.00,,---,0.00,VWS V14.01,2013-03-01 05:16:00,
2013-03-01 00:21:00,31.1,28.2,29.85,NW,315,2.7,3.6,89,0.00,,---,0.00,VWS V14.01,2013-03-01 05:21:00,
2013-03-01 00:26:00,31.1,28.2,29.85,NNW,338,0.0,4.0,89,0.00,,---,0.00,VWS V14.01,2013-03-01 05:26:00,
2013-03-01 00:31:00,31.1,28.2,29.85,NW,315,4.0,4.0,89,0.00,,---,0.00,VWS V14.01,2013-03-01 05:31:00,
2013-03-01 00:36:00,30.9,28.1,29.85,NE,45,0.0,4.0,89,0.00,,---,0.00,VWS V14.01,2013-03-01 05:36:00,
2013-03-01 00:41:00,30.9,27.8,29.85,North,0,0.0,4.0,88,0.00,,---,0.00,VWS V14.01,2013-03-01 05:41:00,
2013-03-01 00:46:00,30.9,27.8,29.85,NE,45,0.0,4.0,88,0.00,,---,0.00,VWS V14.01,2013-03-01 05:46:00,
2013-03-01 00:51:00,30.9,27.8,29.85,SW,225,0.0,0.0,88,0.00,,---,0.00,VWS V14.01,2013-03-01 05:51:00,
2013-03-01 00:56:00,30.9,27.5,29.85,North,0,0.0,0.0,87,0.00,,---,0.00,VWS V14.01,2013-03-01 05:56:00,
2013-03-01 01:01:00,30.9,27.5,29.85,NE,45,0.0,3.1,87,0.00,,---,0.00,VWS V14.01,2013-03-01 06:01:00,
2013-03-01 01:06:00,30.7,27.1,29.85,North,0,0.0,4.0,86,0.00,,---,0.00,VWS V14.01,2013-03-01 06:06:00,
2013-03-01 01:11:00,30.7,27.1,29.85,North,0,0.0,2.7,86,0.00,,---,0.00,VWS V14.01,2013-03-01 06:11:00,
2013-03-01 01:16:00,30.7,27.1,29.85,NE,45,2.7,3.1,86,0.00,,---,0.00,VWS V14.01,2013-03-01 06:16:00,
2013-03-01 01:21:00,30.6,26.6,29.85,NW,315,2.7,2.7,85,0.00,,---,0.00,VWS V14.01,2013-03-01 06:21:00,
2013-03-01 01:26:00,30.6,26.3,29.85,East,90,0.0,4.0,84,0.00,,---,0.00,VWS V14.01,2013-03-01 06:26:00,
2013-03-01 01:31:00,30.6,26.3,29.85,North,0,0.0,3.1,84,0.00,,---,0.00,VWS V14.01,2013-03-01 06:31:00,
2013-03-01 01:36:00,30.6,26.0,29.85,NE,45,0.0,4.0,83,0.00,,---,0.00,VWS V14.01,2013-03-01 06:36:00,
2013-03-01 01:41:00,30.6,25.7,29.85,North,0,0.0,3.1,82,0.00,,---,0.00,VWS V14.01,2013-03-01 06:41:00,
2013-03-01 01:46:00,30.6,25.4,29.85,North,0,0.0,5.4,81,0.00,,---,0.00,VWS V14.01,2013-03-01 06:46:00,
2013-03-01 01:51:00,30.6,25.1,29.85,South,180,0.0,2.7,80,0.00,,---,0.00,VWS V14.01,2013-03-01 06:51:00,
2013-03-01 01:56:00,30.4,24.7,29.88,NNW,338,0.0,4.5,79,0.00,,---,0.00,VWS V14.01,2013-03-01 06:56:00,
2013-03-01 02:01:00,30.4,24.7,29.88,North,0,0.0,0.0,79,0.00,,---,0.00,VWS V14.01,2013-03-01 07:01:00,
2013-03-01 02:06:00,30.4,24.7,29.88,North,0,2.7,4.0,79,0.00,,---,0.00,VWS V14.01,2013-03-01 07:06:00,
2013-03-01 02:11:00,30.4,24.4,29.88,North,0,4.0,4.9,78,0.00,,---,0.00,VWS V14.01,2013-03-01 07:11:00,
2013-03-01 02:16:00,30.4,24.4,29.88,NE,45,2.7,5.4,78,0.00,,---,0.00,VWS V14.01,2013-03-01 07:16:00,
2013-03-01 02:21:00,30.4,24.0,29.88,West,270,0.0,5.4,77,0.00,,---,0.00,VWS V14.01,2013-03-01 07:21:00,
2013-03-01 02:26:00,30.4,24.0,29.85,North,0,0.0,5.4,77,0.00,,---,0.00,VWS V14.01,2013-03-01 07:26:00,
2013-03-01 02:31:00,30.4,23.7,29.85,North,0,0.0,4.0,76,0.00,,---,0.00,VWS V14.01,2013-03-01 07:31:00,
2013-03-01 02:36:00,30.2,23.6,29.85,West,270,4.0,8.1,76,0.00,,---,0.00,VWS V14.01,2013-03-01 07:36:00,
2013-03-01 02:41:00,30.2,23.2,29.88,WNW,292,0.0,4.9,75,0.00,,---,0.00,VWS V14.01,2013-03-01 07:41:00,
2013-03-01 02:46:00,30.2,23.2,29.88,North,0,3.1,4.9,75,0.00,,---,0.00,VWS V14.01,2013-03-01 07:46:00,
2013-03-01 02:51:00,30.2,23.2,29.88,NE,45,0.0,3.6,75,0.00,,---,0.00,VWS V14.01,2013-03-01 07:51:00,
2013-03-01 02:56:00,30.2,23.2,29.88,East,90,3.6,7.2,75,0.00,,---,0.00,VWS V14.01,2013-03-01 07:56:00,
2013-03-01 03:01:00,30.0,22.8,29.88,NW,315,0.0,3.6,74,0.00,,---,0.00,VWS V14.01,2013-03-01 08:01:00,
2013-03-01 03:06:00,30.0,22.4,29.88,NE,45,0.0,5.8,73,0.00,,---,0.00,VWS V14.01,2013-03-01 08:06:00,
2013-03-01 03:11:00,30.0,22.1,29.88,East,90,0.0,0.0,72,0.00,,---,0.00,VWS V14.01,2013-03-01 08:11:00,
2013-03-01 03:16:00,29.8,21.9,29.88,NW,315,0.0,4.0,72,0.00,,---,0.00,VWS V14.01,2013-03-01 08:16:00,
2013-03-01 03:21:00,29.8,21.6,29.88,NW,315,3.1,4.0,71,0.00,,---,0.00,VWS V14.01,2013-03-01 08:21:00,
2013-03-01 03:26:00,29.8,21.6,29.88,North,0,0.0,4.0,71,0.00,,---,0.00,VWS V14.01,2013-03-01 08:26:00,
2013-03-01 03:31:00,29.8,21.6,29.88,NW,315,0.0,3.1,71,0.00,,---,0.00,VWS V14.01,2013-03-01 08:31:00,
2013-03-01 03:36:00,29.7,21.4,29.88,North,0,0.0,3.6,71,0.00,,---,0.00,VWS V14.01,2013-03-01 08:36:00,
2013-03-01 03:41:00,29.7,21.8,29.88,NE,45,4.0,4.0,72,0.00,,---,0.00,VWS V14.01,2013-03-01 08:41:00,
2013-03-01 03:46:00,29.5,21.6,29.88,North,0,2.2,7.6,72,0.00,,---,0.00,VWS V14.01,2013-03-01 08:46:00,
2013-03-01 03:51:00,29.5,21.6,29.88,NNW,338,0.0,4.0,72,0.00,,---,0.00,VWS V14.01,2013-03-01 08:51:00,
2013-03-01 03:56:00,29.3,21.7,29.88,SW,225,4.9,5.8,73,0.00,,---,0.00,VWS V14.01,2013-03-01 08:56:00,
2013-03-01 04:01:00,29.3,21.7,29.88,NE,45,0.0,8.1,73,0.00,,---,0.00,VWS V14.01,2013-03-01 09:01:00,
2013-03-01 04:06:00,29.3,21.7,29.88,SW,225,2.2,8.1,73,0.00,,---,0.00,VWS V14.01,2013-03-01 09:06:00,
2013-03-01 04:11:00,29.3,21.4,29.88,North,0,2.7,4.0,72,0.00,,---,0.00,VWS V14.01,2013-03-01 09:11:00,
2013-03-01 04:16:00,29.3,21.4,29.88,North,0,4.0,4.9,72,0.00,,---,0.00,VWS V14.01,2013-03-01 09:16:00,
2013-03-01 04:21:00,29.1,20.9,29.88,NW,315,0.0,0.0,71,0.00,,---,0.00,VWS V14.01,2013-03-01 09:21:00,
2013-03-01 04:26:00,28.9,20.4,29.88,North,0,8.1,8.1,70,0.00,,---,0.00,VWS V14.01,2013-03-01 09:26:00,
2013-03-01 04:31:00,28.8,19.2,29.88,ENE,68,0.0,2.7,67,0.00,,---,0.00,VWS V14.01,2013-03-01 09:31:00,
2013-03-01 04:36:00,28.8,19.2,29.88,NNW,338,0.0,2.7,67,0.00,,---,0.00,VWS V14.01,2013-03-01 09:36:00,
2013-03-01 04:41:00,28.8,19.2,29.88,North,0,5.4,5.4,67,0.00,,---,0.00,VWS V14.01,2013-03-01 09:41:00,
2013-03-01 04:46:00,28.6,18.3,29.88,NNE,22,0.0,7.6,65,0.00,,---,0.00,VWS V14.01,2013-03-01 09:46:00,
2013-03-01 04:51:00,28.6,18.7,29.88,South,180,0.0,0.0,66,0.00,,---,0.00,VWS V14.01,2013-03-01 09:51:00,
2013-03-01 04:56:00,28.6,18.3,29.88,NNW,338,0.0,3.6,65,0.00,,---,0.00,VWS V14.01,2013-03-01 09:56:00,
2013-03-01 05:01:00,28.6,18.0,29.88,NNE,22,2.2,5.8,64,0.00,,---,0.00,VWS V14.01,2013-03-01 10:01:00,
2013-03-01 05:06:00,28.4,17.8,29.88,North,0,2.7,5.8,64,0.00,,---,0.00,VWS V14.01,2013-03-01 10:06:00,
2013-03-01 05:11:00,28.4,17.4,29.88,ENE,68,2.2,3.1,63,0.00,,---,0.00,VWS V14.01,2013-03-01 10:11:00,
2013-03-01 05:16:00,28.4,17.4,29.88,NE,45,3.1,5.8,63,0.00,,---,0.00,VWS V14.01,2013-03-01 10:16:00,
2013-03-01 05:21:00,28.4,17.1,29.88,NNE,22,2.7,3.1,62,0.00,,---,0.00,VWS V14.01,2013-03-01 10:21:00,
2013-03-01 05:26:00,28.2,16.5,29.88,NE,45,0.0,5.8,61,0.00,,---,0.00,VWS V14.01,2013-03-01 10:26:00,
2013-03-01 05:31:00,28.2,16.1,29.88,NE,45,3.6,5.8,60,0.00,,---,0.00,VWS V14.01,2013-03-01 10:31:00,
2013-03-01 05:36:00,28.2,16.1,29.88,North,0,2.7,5.8,60,0.00,,---,0.00,VWS V14.01,2013-03-01 10:36:00,
2013-03-01 05:41:00,28.0,15.6,29.91,North,0,4.0,4.0,59,0.00,,---,0.00,VWS V14.01,2013-03-01 10:41:00,
2013-03-01 05:46:00,27.9,15.0,29.91,NE,45,2.2,6.7,58,0.00,,---,0.00,VWS V14.01,2013-03-01 10:46:00,
2013-03-01 05:51:00,27.9,15.0,29.91,NE,45,0.0,0.0,58,0.00,,---,0.00,VWS V14.01,2013-03-01 10:51:00,
2013-03-01 05:56:00,27.7,14.9,29.91,SW,225,0.0,4.0,58,0.00,,---,0.00,VWS V14.01,2013-03-01 10:56:00,
2013-03-01 06:01:00,27.5,14.3,29.91,South,180,2.7,5.4,57,0.00,,---,0.00,VWS V14.01,2013-03-01 11:01:00,
2013-03-01 06:06:00,27.5,13.9,29.91,NE,45,7.6,8.3,56,0.00,,---,0.00,VWS V14.01,2013-03-01 11:06:00,
2013-03-01 06:11:00,27.5,13.5,29.94,NW,315,2.2,2.7,55,0.00,,---,0.00,VWS V14.01,2013-03-01 11:11:00,
2013-03-01 06:16:00,27.3,13.3,29.94,North,0,0.0,6.7,55,0.00,,---,0.00,VWS V14.01,2013-03-01 11:16:00,
2013-03-01 06:21:00,27.1,13.1,29.94,NE,45,5.8,7.2,55,0.00,,---,0.00,VWS V14.01,2013-03-01 11:21:00,
2013-03-01 06:26:00,27.1,13.5,29.94,NNW,338,3.1,7.2,56,0.00,,---,0.00,VWS V14.01,2013-03-01 11:26:00,
2013-03-01 06:31:00,27.0,13.0,29.94,NNW,338,2.2,4.5,55,0.00,,---,0.00,VWS V14.01,2013-03-01 11:31:00,
2013-03-01 06:36:00,27.0,13.0,29.94,NNE,22,0.0,4.5,55,0.00,,---,0.00,VWS V14.01,2013-03-01 11:36:00,
2013-03-01 06:41:00,27.0,13.4,29.94,NE,45,2.2,3.1,56,0.00,,---,0.00,VWS V14.01,2013-03-01 11:41:00,
2013-03-01 06:46:00,27.0,13.4,29.94,North,0,2.2,3.1,56,0.00,,---,0.00,VWS V14.01,2013-03-01 11:46:00,
2013-03-01 06:51:00,27.0,13.4,29.94,NE,45,0.0,3.1,56,0.00,,---,0.00,VWS V14.01,2013-03-01 11:51:00,
2013-03-01 06:56:00,27.0,13.0,29.94,South,180,0.0,4.0,55,0.00,,---,0.00,VWS V14.01,2013-03-01 11:56:00,
2013-03-01 07:01:00,26.8,12.8,29.94,NNE,22,0.0,2.2,55,0.00,,---,0.00,VWS V14.01,2013-03-01 12:01:00,
2013-03-01 07:06:00,26.8,12.8,29.94,North,0,2.2,4.9,55,0.00,,---,0.00,VWS V14.01,2013-03-01 12:06:00,
2013-03-01 07:11:00,26.8,12.4,29.94,NNE,22,3.1,4.0,54,0.00,,---,0.00,VWS V14.01,2013-03-01 12:11:00,
2013-03-01 07:16:00,26.8,12.4,29.94,North,0,0.0,5.8,54,0.00,,---,0.00,VWS V14.01,2013-03-01 12:16:00,
2013-03-01 07:21:00,26.8,12.4,29.94,NNE,22,0.0,4.0,54,0.00,,---,0.00,VWS V14.01,2013-03-01 12:21:00,
2013-03-01 07:26:00,27.0,12.6,29.94,NE,45,0.0,4.0,54,0.00,,---,0.00,VWS V14.01,2013-03-01 12:26:00,
2013-03-01 07:31:00,27.0,13.0,29.94,NW,315,0.0,3.1,55,0.00,,---,0.00,VWS V14.01,2013-03-01 12:31:00,
2013-03-01 07:36:00,27.0,12.6,29.94,North,0,0.0,5.8,54,0.00,,---,0.00,VWS V14.01,2013-03-01 12:36:00,
2013-03-01 07:41:00,27.0,12.6,29.97,NW,315,2.2,2.7,54,0.00,,---,0.00,VWS V14.01,2013-03-01 12:41:00,
2013-03-01 07:46:00,27.0,12.6,29.97,NE,45,0.0,6.3,54,0.00,,---,0.00,VWS V14.01,2013-03-01 12:46:00,
2013-03-01 07:51:00,27.0,12.6,29.97,NNW,338,4.0,6.3,54,0.00,,---,0.00,VWS V14.01,2013-03-01 12:51:00,
2013-03-01 07:56:00,27.0,12.6,29.97,ESE,112,2.2,6.3,54,0.00,,---,0.00,VWS V14.01,2013-03-01 12:56:00,
2013-03-01 08:01:00,27.0,12.1,29.97,NE,45,0.0,4.5,53,0.00,,---,0.00,VWS V14.01,2013-03-01 13:01:00,
2013-03-01 08:06:00,27.1,12.7,29.97,SSW,202,0.0,4.5,54,0.00,,---,0.00,VWS V14.01,2013-03-01 13:06:00,
2013-03-01 08:11:00,27.1,12.7,29.97,North,0,0.0,3.1,54,0.00,,---,0.00,VWS V14.01,2013-03-01 13:11:00,
2013-03-01 08:16:00,27.1,12.7,29.97,NE,45,0.0,3.1,54,0.00,,---,0.00,VWS V14.01,2013-03-01 13:16:00,
2013-03-01 08:21:00,27.1,12.7,29.97,NE,45,0.0,0.0,54,0.00,,---,0.00,VWS V14.01,2013-03-01 13:21:00,
2013-03-01 08:26:00,27.1,13.1,29.97,NE,45,2.7,4.0,55,0.00,,---,0.00,VWS V14.01,2013-03-01 13:26:00,
2013-03-01 08:31:00,27.3,13.3,29.97,NW,315,2.7,4.9,55,0.00,,---,0.00,VWS V14.01,2013-03-01 13:31:00,
2013-03-01 08:36:00,27.3,13.7,29.97,NNW,338,0.0,4.9,56,0.00,,---,0.00,VWS V14.01,2013-03-01 13:36:00,
2013-03-01 08:41:00,27.1,13.5,29.97,NW,315,3.1,5.4,56,0.00,,---,0.00,VWS V14.01,2013-03-01 13:41:00,
2013-03-01 08:46:00,27.3,13.7,29.97,NNE,22,5.4,5.4,56,0.00,,---,0.00,VWS V14.01,2013-03-01 13:46:00,
2013-03-01 08:51:00,27.3,13.7,29.97,NW,315,0.0,3.1,56,0.00,,---,0.00,VWS V14.01,2013-03-01 13:51:00,
2013-03-01 08:56:00,27.3,14.1,29.97,NE,45,3.6,3.6,57,0.00,,---,0.00,VWS V14.01,2013-03-01 13:56:00,
2013-03-01 09:01:00,27.3,14.1,29.97,NE,45,3.1,4.9,57,0.00,,---,0.00,VWS V14.01,2013-03-01 14:01:00,
2013-03-01 09:06:00,27.3,14.5,29.97,NNE,22,2.7,4.9,58,0.00,,---,0.00,VWS V14.01,2013-03-01 14:06:00,
2013-03-01 09:11:00,27.3,14.9,29.97,ESE,112,2.2,5.4,59,0.00,,---,0.00,VWS V14.01,2013-03-01 14:11:00,
2013-03-01 09:16:00,27.5,15.1,29.97,NNW,338,0.0,5.4,59,0.00,,---,0.00,VWS V14.01,2013-03-01 14:16:00,
2013-03-01 09:21:00,27.7,15.6,29.97,North,0,0.0,0.0,60,0.00,,---,0.00,VWS V14.01,2013-03-01 14:21:00,
2013-03-01 09:26:00,27.7,15.6,30.00,North,0,0.0,6.3,60,0.00,,---,0.00,VWS V14.01,2013-03-01 14:26:00,
2013-03-01 09:31:00,27.5,15.4,30.00,North,0,2.7,4.0,60,0.00,,---,0.00,VWS V14.01,2013-03-01 14:31:00,
2013-03-01 09:36:00,27.5,15.8,30.00,NE,45,2.7,4.0,61,0.00,,---,0.00,VWS V14.01,2013-03-01 14:36:00,
2013-03-01 09:41:00,27.5,16.2,30.00,NNW,338,0.0,3.6,62,0.00,,---,0.00,VWS V14.01,2013-03-01 14:41:00,
2013-03-01 09:46:00,27.7,16.7,30.00,WSW,248,0.0,3.6,63,0.00,,---,0.00,VWS V14.01,2013-03-01 14:46:00,
2013-03-01 09:51:00,27.5,16.6,30.00,NW,315,3.1,3.1,63,0.00,,---,0.00,VWS V14.01,2013-03-01 14:51:00,
2013-03-01 09:56:00,27.5,16.9,30.00,NE,45,0.0,3.6,64,0.00,,---,0.00,VWS V14.01,2013-03-01 14:56:00,
2013-03-01 10:01:00,27.9,18.0,30.00,NNE,22,4.0,4.0,66,0.00,,---,0.00,VWS V14.01,2013-03-01 15:01:00,
2013-03-01 10:06:00,27.5,17.3,30.00,NW,315,4.0,5.8,65,0.00,,---,0.00,VWS V14.01,2013-03-01 15:06:00,
2013-03-01 10:11:00,27.7,17.8,30.00,NE,45,3.1,3.1,66,0.00,,---,0.00,VWS V14.01,2013-03-01 15:11:00,
2013-03-01 10:16:00,27.7,17.8,30.00,North,0,3.1,5.4,66,0.00,,---,0.00,VWS V14.01,2013-03-01 15:16:00,
2013-03-01 10:21:00,27.5,17.3,30.00,NNE,22,0.0,3.6,65,0.00,,---,0.00,VWS V14.01,2013-03-01 15:21:00,
2013-03-01 10:26:00,27.3,17.1,30.00,NNW,338,0.0,6.3,65,0.00,,---,0.00,VWS V14.01,2013-03-01 15:26:00,
2013-03-01 10:31:00,27.3,16.8,30.00,NNW,338,3.1,3.6,64,0.00,,---,0.00,VWS V14.01,2013-03-01 15:31:00,
2013-03-01 10:36:00,27.3,16.8,30.00,NW,315,3.1,6.3,64,0.00,,---,0.00,VWS V14.01,2013-03-01 15:36:00,
2013-03-01 10:41:00,27.3,16.4,30.00,North,0,3.6,4.0,63,0.00,,---,0.00,VWS V14.01,2013-03-01 15:41:00,
2013-03-01 10:46:00,27.7,16.7,30.00,NNW,338,3.6,8.1,63,0.00,,---,0.00,VWS V14.01,2013-03-01 15:46:00,
2013-03-01 10:51:00,27.7,16.4,30.00,NNW,338,2.7,4.9,62,0.00,,---,0.00,VWS V14.01,2013-03-01 15:51:00,
2013-03-01 10:56:00,27.5,15.8,30.00,NW,315,3.1,4.9,61,0.00,,---,0.00,VWS V14.01,2013-03-01 15:56:00,
2013-03-01 11:01:00,27.7,16.0,30.00,NNW,338,2.2,4.0,61,0.00,,---,0.00,VWS V14.01,2013-03-01 16:01:00,
2013-03-01 11:06:00,27.7,16.0,30.00,North,0,2.2,5.4,61,0.00,,---,0.00,VWS V14.01,2013-03-01 16:06:00,
2013-03-01 11:11:00,27.7,15.2,30.00,NNW,338,5.4,7.6,59,0.00,,---,0.00,VWS V14.01,2013-03-01 16:11:00,
2013-03-01 11:16:00,27.7,14.9,30.00,North,0,2.7,7.6,58,0.00,,---,0.00,VWS V14.01,2013-03-01 16:16:00,
2013-03-01 11:21:00,27.7,14.4,30.00,ENE,68,0.0,4.5,57,0.00,,---,0.00,VWS V14.01,2013-03-01 16:21:00,
2013-03-01 11:26:00,27.9,14.2,30.00,North,0,4.9,4.9,56,0.00,,---,0.00,VWS V14.01,2013-03-01 16:26:00,
2013-03-01 11:31:00,27.7,13.2,30.00,North,0,3.6,5.8,54,0.00,,---,0.00,VWS V14.01,2013-03-01 16:31:00,
2013-03-01 11:36:00,27.9,13.4,30.00,NW,315,4.0,7.6,54,0.00,,---,0.00,VWS V14.01,2013-03-01 16:36:00,
2013-03-01 11:41:00,28.2,13.7,30.00,NNE,22,5.4,6.3,54,0.00,,---,0.00,VWS V14.01,2013-03-01 16:41:00,
2013-03-01 11:46:00,28.2,13.3,30.00,WNW,292,0.0,6.3,53,0.00,,---,0.00,VWS V14.01,2013-03-01 16:46:00,
2013-03-01 11:51:00,28.8,13.8,30.00,North,0,0.0,4.0,53,0.00,,---,0.00,VWS V14.01,2013-03-01 16:51:00,
2013-03-01 11:56:00,28.6,13.2,30.03,North,0,2.7,5.4,52,0.00,,---,0.00,VWS V14.01,2013-03-01 16:56:00,
2013-03-01 12:01:00,28.2,12.4,30.03,North,0,3.1,5.4,51,0.00,,---,0.00,VWS V14.01,2013-03-01 17:01:00,
2013-03-01 12:06:00,28.9,13.1,30.03,NE,45,4.9,5.4,51,0.00,,---,0.00,VWS V14.01,2013-03-01 17:06:00,
2013-03-01 12:11:00,28.6,12.3,30.00,North,0,4.0,4.5,50,0.00,,---,0.00,VWS V14.01,2013-03-01 17:11:00,
2013-03-01 12:16:00,28.9,12.2,30.00,North,0,0.0,4.9,49,0.00,,---,0.00,VWS V14.01,2013-03-01 17:16:00,
2013-03-01 12:21:00,28.8,11.6,30.00,NNE,22,3.6,4.9,48,0.00,,---,0.00,VWS V14.01,2013-03-01 17:21:00,
2013-03-01 12:26:00,28.6,10.9,30.00,SW,225,0.0,4.9,47,0.00,,---,0.00,VWS V14.01,2013-03-01 17:26:00,
2013-03-01 12:31:00,28.6,10.4,30.00,North,0,0.0,3.1,46,0.00,,---,0.00,VWS V14.01,2013-03-01 17:31:00,
2013-03-01 12:36:00,28.4,10.8,30.00,NE,45,2.2,7.6,47,0.00,,---,0.00,VWS V14.01,2013-03-01 17:36:00,
2013-03-01 12:41:00,28.2,10.6,30.00,NE,45,4.9,4.9,47,0.00,,---,0.00,VWS V14.01,2013-03-01 17:41:00,
2013-03-01 12:46:00,28.0,10.4,30.00,NW,315,3.1,6.3,47,0.00,,---,0.00,VWS V14.01,2013-03-01 17:46:00,
2013-03-01 12:51:00,27.9,10.3,30.00,North,0,5.4,5.4,47,0.00,,---,0.00,VWS V14.01,2013-03-01 17:51:00,
2013-03-01 12:56:00,27.9,10.3,30.00,North,0,4.9,5.4,47,0.00,,---,0.00,VWS V14.01,2013-03-01 17:56:00,
2013-03-01 13:01:00,28.2,10.6,30.00,NE,45,0.0,3.6,47,0.00,,---,0.00,VWS V14.01,2013-03-01 18:01:00,
2013-03-01 13:06:00,28.2,10.6,30.00,NW,315,2.7,4.0,47,0.00,,---,0.00,VWS V14.01,2013-03-01 18:06:00,
2013-03-01 13:11:00,28.2,10.1,30.00,North,0,5.4,5.4,46,0.00,,---,0.00,VWS V14.01,2013-03-01 18:11:00,
2013-03-01 13:16:00,27.9,9.8,30.00,NNE,22,3.1,5.4,46,0.00,,---,0.00,VWS V14.01,2013-03-01 18:16:00,
2013-03-01 13:21:00,27.7,9.1,30.00,NNE,22,4.0,5.4,45,0.00,,---,0.00,VWS V14.01,2013-03-01 18:21:00,
2013-03-01 13:26:00,28.0,9.9,30.00,NW,315,0.0,5.4,46,0.00,,---,0.00,VWS V14.01,2013-03-01 18:26:00,
2013-03-01 13:31:00,27.9,9.8,30.00,NNW,338,0.0,3.1,46,0.00,,---,0.00,VWS V14.01,2013-03-01 18:31:00,
2013-03-01 13:36:00,27.9,9.3,30.00,North,0,4.9,5.8,45,0.00,,---,0.00,VWS V14.01,2013-03-01 18:36:00,
2013-03-01 13:41:00,27.7,9.1,30.00,North,0,2.2,7.6,45,0.00,,---,0.00,VWS V14.01,2013-03-01 18:41:00,
2013-03-01 13:46:00,28.2,10.1,30.00,NNW,338,2.2,7.6,46,0.00,,---,0.00,VWS V14.01,2013-03-01 18:46:00,
2013-03-01 13:51:00,28.4,9.8,30.00,North,0,0.0,5.4,45,0.00,,---,0.00,VWS V14.01,2013-03-01 18:51:00,
2013-03-01 13:56:00,28.4,9.3,30.00,NW,315,2.7,5.4,44,0.00,,---,0.00,VWS V14.01,2013-03-01 18:56:00,
2013-03-01 14:01:00,28.0,8.9,30.00,NW,315,4.9,6.3,44,0.00,,---,0.00,VWS V14.01,2013-03-01 19:01:00,
2013-03-01 14:06:00,28.0,8.9,30.00,NW,315,0.0,7.2,44,0.00,,---,0.00,VWS V14.01,2013-03-01 19:06:00,
2013-03-01 14:11:00,28.6,9.4,30.00,NW,315,0.0,3.1,44,0.00,,---,0.00,VWS V14.01,2013-03-01 19:11:00,
2013-03-01 14:16:00,28.6,9.4,30.00,NNE,22,3.6,4.9,44,0.00,,---,0.00,VWS V14.01,2013-03-01 19:16:00,
2013-03-01 14:21:00,28.6,9.4,30.00,NNE,22,3.1,4.0,44,0.00,,---,0.00,VWS V14.01,2013-03-01 19:21:00,
2013-03-01 14:26:00,28.6,9.4,30.00,North,0,2.2,4.0,44,0.00,,---,0.00,VWS V14.01,2013-03-01 19:26:00,
2013-03-01 14:31:00,28.4,9.3,30.00,NNW,338,3.1,5.4,44,0.00,,---,0.00,VWS V14.01,2013-03-01 19:31:00,
2013-03-01 14:36:00,27.9,8.8,30.00,North,0,4.0,7.6,44,0.00,,---,0.00,VWS V14.01,2013-03-01 19:36:00,
2013-03-01 14:41:00,27.5,7.9,30.00,North,0,2.7,5.8,43,0.00,,---,0.00,VWS V14.01,2013-03-01 19:41:00,
2013-03-01 14:46:00,27.7,8.1,30.00,SW,225,3.1,5.8,43,0.00,,---,0.00,VWS V14.01,2013-03-01 19:46:00,
2013-03-01 14:51:00,28.2,8.6,30.00,NE,45,4.0,4.0,43,0.00,,---,0.00,VWS V14.01,2013-03-01 19:51:00,
2013-03-01 14:56:00,27.9,7.8,30.00,NNE,22,3.1,5.8,42,0.00,,---,0.00,VWS V14.01,2013-03-01 19:56:00,
2013-03-01 15:01:00,28.0,7.9,30.00,North,0,2.7,4.0,42,0.00,,---,0.00,VWS V14.01,2013-03-01 20:01:00,
2013-03-01 15:06:00,27.7,7.6,30.00,NNW,338,3.6,4.9,42,0.00,,---,0.00,VWS V14.01,2013-03-01 20:06:00,
2013-03-01 15:11:00,27.5,7.4,30.00,North,0,0.0,0.0,42,0.00,,---,0.00,VWS V14.01,2013-03-01 20:11:00,
2013-03-01 15:16:00,27.5,7.4,30.00,NW,315,0.0,4.5,42,0.00,,---,0.00,VWS V14.01,2013-03-01 20:16:00,
2013-03-01 15:21:00,27.3,7.8,30.00,NW,315,0.0,4.0,43,0.00,,---,0.00,VWS V14.01,2013-03-01 20:21:00,
2013-03-01 15:26:00,27.3,7.8,30.00,NNW,338,4.0,6.3,43,0.00,,---,0.00,VWS V14.01,2013-03-01 20:26:00,
2013-03-01 15:31:00,27.0,7.5,30.00,NW,315,0.0,4.9,43,0.00,,---,0.00,VWS V14.01,2013-03-01 20:31:00,
2013-03-01 15:36:00,27.5,7.9,30.00,NE,45,4.0,5.8,43,0.00,,---,0.00,VWS V14.01,2013-03-01 20:36:00,
2013-03-01 15:41:00,27.3,7.3,30.00,NE,45,4.0,4.0,42,0.00,,---,0.00,VWS V14.01,2013-03-01 20:41:00,
2013-03-01 15:46:00,27.0,6.9,30.00,North,0,3.6,6.3,42,0.00,,---,0.00,VWS V14.01,2013-03-01 20:46:00,
2013-03-01 15:51:00,27.0,6.9,30.00,North,0,3.1,4.0,42,0.00,,---,0.00,VWS V14.01,2013-03-01 20:51:00,
2013-03-01 15:56:00,27.1,7.1,30.00,NE,45,3.1,4.9,42,0.00,,---,0.00,VWS V14.01,2013-03-01 20:56:00,
2013-03-01 16:01:00,27.0,6.9,30.00,NW,315,3.6,3.6,42,0.00,,---,0.00,VWS V14.01,2013-03-01 21:01:00,
2013-03-01 16:06:00,27.0,7.5,30.00,North,0,4.9,5.8,43,0.00,,---,0.00,VWS V14.01,2013-03-01 21:06:00,
2013-03-01 16:11:00,27.0,7.5,30.00,NW,315,2.7,6.3,43,0.00,,---,0.00,VWS V14.01,2013-03-01 21:11:00,
2013-03-01 16:16:00,26.8,7.3,30.00,NW,315,3.6,6.3,43,0.00,,---,0.00,VWS V14.01,2013-03-01 21:16:00,
2013-03-01 16:21:00,26.8,7.3,30.00,NNW,338,4.9,5.8,43,0.00,,---,0.00,VWS V14.01,2013-03-01 21:21:00,
2013-03-01 16:26:00,26.6,7.1,30.00,NNE,22,2.7,8.3,43,0.00,,---,0.00,VWS V14.01,2013-03-01 21:26:00,
2013-03-01 16:31:00,27.0,7.5,30.00,NW,315,0.0,0.0,43,0.00,,---,0.00,VWS V14.01,2013-03-01 21:31:00,
2013-03-01 16:36:00,26.6,7.1,30.00,NNE,22,0.0,4.0,43,0.00,,---,0.00,VWS V14.01,2013-03-01 21:36:00,
2013-03-01 16:41:00,26.8,7.3,30.00,NNW,338,3.6,3.6,43,0.00,,---,0.00,VWS V14.01,2013-03-01 21:41:00,
2013-03-01 16:46:00,26.6,7.1,30.00,NNE,22,3.1,4.0,43,0.00,,---,0.00,VWS V14.01,2013-03-01 21:46:00,
2013-03-01 16:51:00,26.6,7.6,30.00,North,0,4.5,4.5,44,0.00,,---,0.00,VWS V14.01,2013-03-01 21:51:00,
2013-03-01 16:56:00,26.4,7.0,30.00,North,0,2.7,7.6,43,0.00,,---,0.00,VWS V14.01,2013-03-01 21:56:00,
2013-03-01 17:01:00,26.4,7.5,30.00,NNW,338,3.1,3.1,44,0.00,,---,0.00,VWS V14.01,2013-03-01 22:01:00,
2013-03-01 17:06:00,26.6,7.6,30.00,North,0,6.3,6.3,44,0.00,,---,0.00,VWS V14.01,2013-03-01 22:06:00,
2013-03-01 17:11:00,26.2,7.3,30.00,NW,315,0.0,3.1,44,0.00,,---,0.00,VWS V14.01,2013-03-01 22:11:00,
2013-03-01 17:16:00,26.4,7.5,30.00,North,0,3.6,4.0,44,0.00,,---,0.00,VWS V14.01,2013-03-01 22:16:00,
2013-03-01 17:21:00,26.4,8.0,30.00,North,0,0.0,0.0,45,0.00,,---,0.00,VWS V14.01,2013-03-01 22:21:00,
2013-03-01 17:26:00,26.6,8.1,30.00,NNW,338,0.0,3.1,45,0.00,,---,0.00,VWS V14.01,2013-03-01 22:26:00,
2013-03-01 17:31:00,26.4,7.5,30.00,NE,45,2.7,3.6,44,0.00,,---,0.00,VWS V14.01,2013-03-01 22:31:00,
2013-03-01 17:36:00,26.4,7.5,30.00,NW,315,3.1,4.9,44,0.00,,---,0.00,VWS V14.01,2013-03-01 22:36:00,
2013-03-01 17:41:00,26.4,7.0,30.00,North,0,3.6,5.4,43,0.00,,---,0.00,VWS V14.01,2013-03-01 22:41:00,
2013-03-01 17:46:00,26.2,6.8,30.00,North,0,0.0,5.4,43,0.00,,---,0.00,VWS V14.01,2013-03-01 22:46:00,
2013-03-01 17:51:00,26.2,6.8,30.00,NNE,22,2.7,3.6,43,0.00,,---,0.00,VWS V14.01,2013-03-01 22:51:00,
2013-03-01 17:56:00,26.4,7.0,30.00,North,0,0.0,3.6,43,0.00,,---,0.00,VWS V14.01,2013-03-01 22:56:00,
2013-03-01 18:01:00,26.2,7.3,30.00,NNE,22,3.1,3.6,44,0.00,,---,0.00,VWS V14.01,2013-03-01 23:01:00,
2013-03-01 18:06:00,26.2,7.3,30.00,NW,315,4.5,4.5,44,0.00,,---,0.00,VWS V14.01,2013-03-01 23:06:00,
2013-03-01 18:11:00,26.4,7.5,30.00,NW,315,0.0,0.0,44,0.00,,---,0.00,VWS V14.01,2013-03-01 23:11:00,
2013-03-01 18:16:00,26.4,7.5,30.00,NW,315,0.0,2.7,44,0.00,,---,0.00,VWS V14.01,2013-03-01 23:16:00,
2013-03-01 18:21:00,26.4,8.0,30.00,NW,315,0.0,0.0,45,0.00,,---,0.00,VWS V14.01,2013-03-01 23:21:00,
2013-03-01 18:26:00,26.4,8.0,30.00,NW,315,0.0,0.0,45,0.00,,---,0.00,VWS V14.01,2013-03-01 23:26:00,
2013-03-01 18:31:00,26.6,8.6,30.00,NW,315,0.0,0.0,46,0.00,,---,0.00,VWS V14.01,2013-03-01 23:31:00,
2013-03-01 18:36:00,26.4,8.5,30.00,NNW,338,0.0,0.0,46,0.00,,---,0.00,VWS V14.01,2013-03-01 23:36:00,
2013-03-01 18:41:00,26.4,8.5,30.03,NNW,338,2.2,2.2,46,0.00,,---,0.00,VWS V14.01,2013-03-01 23:41:00,
2013-03-01 18:46:00,26.6,8.6,30.03,North,0,0.0,3.1,46,0.00,,---,0.00,VWS V14.01,2013-03-01 23:46:00,
2013-03-01 18:51:00,26.6,9.1,30.03,North,0,0.0,0.0,47,0.00,,---,0.00,VWS V14.01,2013-03-01 23:51:00,
2013-03-01 18:56:00,26.6,9.1,30.03,North,0,3.1,4.0,47,0.00,,---,0.00,VWS V14.01,2013-03-01 23:56:00,
2013-03-01 19:01:00,26.6,9.1,30.03,North,0,0.0,0.0,47,0.00,,---,0.00,VWS V14.01,2013-03-02 00:01:00,
2013-03-01 19:06:00,26.6,9.1,30.03,North,0,2.7,3.1,47,0.00,,---,0.00,VWS V14.01,2013-03-02 00:06:00,
2013-03-01 19:11:00,26.8,8.8,30.03,North,0,0.0,4.0,46,0.00,,---,0.00,VWS V14.01,2013-03-02 00:11:00,
2013-03-01 19:16:00,26.8,8.3,30.03,North,0,0.0,4.0,45,0.00,,---,0.00,VWS V14.01,2013-03-02 00:16:00,
2013-03-01 19:21:00,26.8,8.3,30.03,NE,45,0.0,0.0,45,0.00,,---,0.00,VWS V14.01,2013-03-02 00:21:00,
2013-03-01 19:26:00,26.6,8.1,30.03,North,0,4.0,5.4,45,0.00,,---,0.00,VWS V14.01,2013-03-02 00:26:00,
2013-03-01 19:31:00,26.6,8.6,30.03,North,0,0.0,3.6,46,0.00,,---,0.00,VWS V14.01,2013-03-02 00:31:00,
2013-03-01 19:36:00,26.6,8.6,30.03,NW,315,3.6,3.6,46,0.00,,---,0.00,VWS V14.01,2013-03-02 00:36:00,
2013-03-01 19:41:00,26.4,8.9,30.03,NW,315,4.0,6.3,47,0.00,,---,0.00,VWS V14.01,2013-03-02 00:41:00,
2013-03-01 19:46:00,26.2,8.8,30.03,NW,315,3.6,6.3,47,0.00,,---,0.00,VWS V14.01,2013-03-02 00:46:00,
2013-03-01 19:51:00,26.2,8.8,30.03,NNE,22,3.6,3.6,47,0.00,,---,0.00,VWS V14.01,2013-03-02 00:51:00,
2013-03-01 19:55:00,26.2,8.8,30.03,NE,45,0.0,4.9,47,0.00,,---,0.00,VWS V14.01,2013-03-02 00:55:00,
2013-03-01 20:00:00,26.1,8.6,30.03,NNE,22,5.8,5.8,47,0.00,,---,0.00,VWS V14.01,2013-03-02 01:00:00,
2013-03-01 20:05:00,26.1,8.6,30.03,NNW,338,3.6,5.8,47,0.00,,---,0.00,VWS V14.01,2013-03-02 01:05:00,
2013-03-01 20:10:00,26.1,8.6,30.03,North,0,3.1,3.1,47,0.00,,---,0.00,VWS V14.01,2013-03-02 01:10:00,
2013-03-01 20:15:00,26.1,8.6,30.03,North,0,2.7,5.4,47,0.00,,---,0.00,VWS V14.01,2013-03-02 01:15:00,
2013-03-01 20:20:00,26.1,8.6,30.03,NE,45,3.6,3.6,47,0.00,,---,0.00,VWS V14.01,2013-03-02 01:20:00,
2013-03-01 20:25:00,26.1,8.6,30.03,North,0,4.9,4.9,47,0.00,,---,0.00,VWS V14.01,2013-03-02 01:25:00,
2013-03-01 20:30:00,26.1,8.6,30.03,NNW,338,0.0,2.7,47,0.00,,---,0.00,VWS V14.01,2013-03-02 01:30:00,
2013-03-01 20:35:00,25.9,8.4,30.03,NNE,22,0.0,5.8,47,0.00,,---,0.00,VWS V14.01,2013-03-02 01:35:00,
2013-03-01 20:40:00,25.9,8.4,30.03,NW,315,5.4,5.4,47,0.00,,---,0.00,VWS V14.01,2013-03-02 01:40:00,
2013-03-01 20:45:00,25.7,8.3,30.03,NE,45,0.0,5.8,47,0.00,,---,0.00,VWS V14.01,2013-03-02 01:45:00,
2013-03-01 20:50:00,25.7,8.3,30.03,North,0,2.7,4.9,47,0.00,,---,0.00,VWS V14.01,2013-03-02 01:50:00,
2013-03-01 20:55:00,25.5,8.1,30.03,North,0,3.1,5.4,47,0.00,,---,0.00,VWS V14.01,2013-03-02 01:55:00,
2013-03-01 21:00:00,25.5,7.6,30.03,NNW,338,2.7,3.1,46,0.00,,---,0.00,VWS V14.01,2013-03-02 02:00:00,
2013-03-01 21:05:00,25.5,7.6,30.03,North,0,0.0,3.6,46,0.00,,---,0.00,VWS V14.01,2013-03-02 02:05:00,
2013-03-01 21:10:00,25.5,8.1,30.03,NE,45,2.7,4.0,47,0.00,,---,0.00,VWS V14.01,2013-03-02 02:10:00,
2013-03-01 21:15:00,25.3,7.9,30.03,NW,315,3.6,5.8,47,0.00,,---,0.00,VWS V14.01,2013-03-02 02:15:00,
2013-03-01 21:20:00,25.3,7.9,30.03,North,0,4.0,4.9,47,0.00,,---,0.00,VWS V14.01,2013-03-02 02:20:00,
2013-03-01 21:25:00,25.3,7.9,30.03,North,0,0.0,5.4,47,0.00,,---,0.00,VWS V14.01,2013-03-02 02:25:00,
2013-03-01 21:30:00,25.3,7.9,30.03,North,0,3.1,4.0,47,0.00,,---,0.00,VWS V14.01,2013-03-02 02:30:00,
2013-03-01 21:35:00,25.3,7.9,30.03,NNE,22,0.0,4.0,47,0.00,,---,0.00,VWS V14.01,2013-03-02 02:35:00,
2013-03-01 21:40:00,25.3,7.9,30.03,North,0,0.0,7.2,47,0.00,,---,0.00,VWS V14.01,2013-03-02 02:40:00,
2013-03-01 21:45:00,25.3,7.9,30.03,NNE,22,2.7,7.2,47,0.00,,---,0.00,VWS V14.01,2013-03-02 02:45:00,
2013-03-01 21:50:00,25.2,7.8,30.03,NW,315,3.1,3.1,47,0.00,,---,0.00,VWS V14.01,2013-03-02 02:50:00,
2013-03-01 21:55:00,25.2,7.8,30.03,NE,45,4.9,6.3,47,0.00,,---,0.00,VWS V14.01,2013-03-02 02:55:00,
2013-03-01 22:00:00,25.0,7.6,30.03,NW,315,3.1,3.1,47,0.00,,---,0.00,VWS V14.01,2013-03-02 03:00:00,
2013-03-01 22:06:00,25.0,7.6,30.03,NW,315,0.0,5.8,47,0.00,,---,0.00,VWS V14.01,2013-03-02 03:06:00,
2013-03-01 22:11:00,25.0,7.6,30.03,NE,45,0.0,0.0,47,0.00,,---,0.00,VWS V14.01,2013-03-02 03:11:00,
2013-03-01 22:16:00,25.0,7.1,30.03,North,0,0.0,3.6,46,0.00,,---,0.00,VWS V14.01,2013-03-02 03:16:00,
2013-03-01 22:21:00,24.8,7.4,30.03,North,0,0.0,0.0,47,0.00,,---,0.00,VWS V14.01,2013-03-02 03:21:00,
2013-03-01 22:26:00,24.8,7.4,30.03,NNW,338,0.0,0.0,47,0.00,,---,0.00,VWS V14.01,2013-03-02 03:26:00,
2013-03-01 22:31:00,24.8,7.4,30.03,NNE,22,2.2,4.9,47,0.00,,---,0.00,VWS V14.01,2013-03-02 03:31:00,
2013-03-01 22:36:00,24.6,7.3,30.03,North,0,0.0,4.9,47,0.00,,---,0.00,VWS V14.01,2013-03-02 03:36:00,
2013-03-01 22:41:00,24.6,7.3,30.03,North,0,0.0,0.0,47,0.00,,---,0.00,VWS V14.01,2013-03-02 03:41:00,
2013-03-01 22:46:00,24.6,7.3,30.03,NE,45,0.0,4.0,47,0.00,,---,0.00,VWS V14.01,2013-03-02 03:46:00,
2013-03-01 22:51:00,24.4,7.1,30.03,East,90,3.6,4.9,47,0.00,,---,0.00,VWS V14.01,2013-03-02 03:51:00,
2013-03-01 22:56:00,24.3,6.9,30.00,North,0,2.7,7.2,47,0.00,,---,0.00,VWS V14.01,2013-03-02 03:56:00,
2013-03-01 23:01:00,24.3,6.9,30.00,NNE,22,2.2,4.9,47,0.00,,---,0.00,VWS V14.01,2013-03-02 04:01:00,
2013-03-01 23:06:00,24.1,6.8,30.00,NW,315,4.5,6.3,47,0.00,,---,0.00,VWS V14.01,2013-03-02 04:06:00,
2013-03-01 23:11:00,24.1,6.8,30.00,North,0,0.0,4.9,47,0.00,,---,0.00,VWS V14.01,2013-03-02 04:11:00,
2013-03-01 23:15:00,23.9,6.1,30.00,NNE,22,2.7,5.4,46,0.00,,---,0.00,VWS V14.01,2013-03-02 04:15:00,
2013-03-01 23:20:00,24.1,6.3,30.00,NE,45,0.0,0.0,46,0.00,,---,0.00,VWS V14.01,2013-03-02 04:20:00,
2013-03-01 23:25:00,24.1,6.3,30.03,NW,315,0.0,3.6,46,0.00,,---,0.00,VWS V14.01,2013-03-02 04:25:00,
2013-03-01 23:30:00,24.1,6.3,30.03,North,0,2.7,4.0,46,0.00,,---,0.00,VWS V14.01,2013-03-02 04:30:00,
2013-03-01 23:35:00,24.1,6.3,30.03,North,0,2.2,4.0,46,0.00,,---,0.00,VWS V14.01,2013-03-02 04:35:00,
2013-03-01 23:40:00,24.1,6.3,30.00,NW,315,0.0,0.0,46,0.00,,---,0.00,VWS V14.01,2013-03-02 04:40:00,
2013-03-01 23:45:00,23.9,6.1,30.00,NW,315,3.1,3.6,46,0.00,,---,0.00,VWS V14.01,2013-03-02 04:45:00,
2013-03-01 23:50:00,23.9,6.6,30.00,North,0,5.4,5.4,47,0.00,,---,0.00,VWS V14.01,2013-03-02 04:50:00,
2013-03-01 23:55:00,23.9,6.6,30.00,NNW,338,0.0,6.3,47,0.00,,---,0.00,VWS V14.01,2013-03-02 04:55:00,